Date,TemperatureHighF,TemperatureAvgF,TemperatureLowF,DewpointHighF,DewpointAvgF,DewpointLowF,HumidityHigh,HumidityAvg,HumidityLow,PressureMaxIn,PressureMinIn,WindSpeedMaxMPH,WindSpeedAvgMPH,GustSpeedMaxMPH,PrecipitationSumIn
2013-1-1,43.9,39.7,35.2,40.5,38.0,34.7,98,94,87,30.07,29.52,11,7,16,0.00
2013-1-2,54.7,50.5,43.0,53.7,49.9,41.1,99,98,93,30.25,30.02,16,9,16,0.00
2013-1-3,56.3,53.3,52.2,54.6,52.2,50.6,99,96,91,30.52,30.26,11,6,12,0.00
2013-1-4,51.6,50.3,46.4,49.9,48.4,44.8,98,93,90,30.54,30.42,10,5,10,0.00
2013-1-5,54.5,50.9,45.0,51.6,49.1,44.2,99,94,87,30.43,30.31,13,4,13,0.00
2013-1-6,52.7,49.6,42.4,50.6,47.1,42.2,99,91,76,30.43,30.19,9,4,9,0.00
2013-1-7,53.8,51.8,48.6,53.1,51.0,48.0,99,97,91,30.19,30.02,11,4,11,0.06
2013-1-8,54.3,49.8,44.4,53.5,48.3,42.8,99,95,87,30.22,29.97,9,4,9,0.02
2013-1-9,43.3,33.7,28.8,43.1,33.4,28.5,99,99,99,30.20,30.06,2,0,2,0.01
2013-1-10,44.6,37.8,28.0,44.3,37.6,27.8,99,99,98,30.03,29.86,7,3,8,0.05
2013-1-11,48.2,40.4,30.2,46.3,39.8,30.0,99,97,93,30.01,29.81,8,2,8,0.05
2013-1-12,45.1,42.4,37.8,44.3,40.2,33.7,99,92,82,30.06,29.72,11,4,11,0.04
2013-1-13,38.5,34.9,29.3,38.2,34.2,28.6,99,97,85,30.14,30.03,8,4,8,0.02
2013-1-14,43.9,39.9,34.9,42.4,38.8,33.8,99,96,85,30.06,29.83,11,5,11,0.04
2013-1-15,39.4,34.8,30.6,38.3,34.2,30.3,99,98,94,29.89,29.75,8,2,8,0.01
2013-1-16,41.4,40.6,39.4,40.5,39.0,36.7,99,94,89,29.83,29.68,7,2,7,0.12
2013-1-17,49.3,44.8,41.4,47.7,43.8,41.1,99,96,87,29.83,29.57,15,4,19,0.01
2013-1-18,43.2,37.9,35.4,40.4,37.4,35.2,99,98,90,29.49,29.18,18,9,18,0.30
2013-1-19,40.6,36.8,35.4,40.4,35.6,31.7,99,95,83,29.58,29.25,7,3,11,0.06
2013-1-20,37.9,36.8,35.6,33.2,31.7,29.5,91,82,74,29.54,29.34,10,5,14,0.00
2013-1-21,38.7,35.2,33.1,38.1,33.9,31.5,99,95,79,29.35,29.27,8,1,8,0.17
2013-1-22,36.5,31.7,25.5,36.0,31.3,25.3,99,98,95,29.71,29.33,2,0,4,0.00
2013-1-23,40.3,36.4,29.5,37.4,34.6,29.2,99,93,83,29.82,29.68,8,2,10,0.01
2013-1-24,43.5,39.0,35.6,39.6,36.7,34.0,97,92,84,29.98,29.81,8,2,14,0.00
2013-1-25,49.1,44.9,41.7,46.9,43.4,39.3,99,94,85,29.87,29.34,24,6,24,0.50
2013-1-26,54.0,45.3,36.3,52.0,43.7,35.5,98,94,88,29.67,29.02,22,9,24,0.04
2013-1-27,51.8,41.0,37.0,50.4,39.1,35.7,99,93,79,29.39,28.96,21,11,21,0.12
2013-1-28,52.5,45.0,36.7,47.7,40.5,34.8,94,84,74,29.50,29.06,27,13,27,0.04
2013-1-29,57.9,49.4,44.8,54.6,46.2,41.3,96,89,84,29.42,29.11,22,10,22,0.07
2013-1-30,48.2,44.8,42.6,44.8,40.9,38.0,94,86,69,29.80,29.32,25,12,25,0.07
2013-1-31,49.3,44.5,40.6,45.2,40.3,38.0,92,85,76,29.75,29.49,36,13,36,0.19
2013-2-1,45.3,41.0,34.5,43.7,36.9,31.0,94,85,73,29.89,29.44,19,8,19,0.00
2013-2-2,45.7,37.3,29.8,38.7,32.9,29.3,99,85,65,30.27,29.91,10,2,11,0.00
2013-2-3,52.2,47.9,40.8,50.7,46.9,38.5,99,97,87,30.12,29.86,14,9,17,0.11
2013-2-4,49.6,42.9,33.6,49.4,39.4,32.6,99,87,73,29.91,29.64,21,11,21,0.06
2013-2-5,44.8,38.1,32.4,41.7,35.7,31.1,98,91,81,29.67,29.37,21,10,21,0.01
2013-2-6,45.3,38.8,32.9,36.2,33.2,31.1,94,81,63,30.24,29.74,14,5,14,0.00
2013-2-7,44.6,38.7,33.3,44.3,38.1,31.7,99,98,93,30.22,29.84,14,5,14,0.19
2013-2-8,47.5,42.5,38.1,45.1,41.1,37.3,99,95,88,30.28,30.16,8,3,8,0.00
2013-2-9,52.5,46.0,41.7,49.7,44.6,41.5,99,95,84,30.17,29.68,8,4,11,0.07
2013-2-10,45.5,43.3,40.3,45.2,43.0,40.0,99,99,98,29.63,29.18,5,2,5,0.65
2013-2-11,41.2,39.8,39.0,40.6,38.8,37.5,99,97,89,29.78,29.22,5,3,5,0.04
2013-2-12,43.2,40.6,38.8,41.8,39.6,38.6,99,96,89,29.98,29.79,6,3,7,0.01
2013-2-13,54.3,48.4,41.9,51.9,47.3,41.1,99,96,90,29.92,29.60,17,6,17,0.15
2013-2-14,53.1,44.7,40.6,46.5,42.5,39.6,99,92,74,29.98,29.65,14,7,14,0.01
2013-2-15,53.1,43.5,37.2,45.5,40.5,37.0,99,89,68,30.11,29.99,8,3,8,0.01
2013-2-16,56.8,48.7,43.2,50.1,44.8,40.4,98,86,73,30.06,30.00,8,3,11,0.00
2013-2-17,49.8,46.9,43.5,42.7,41.0,37.1,86,80,71,29.99,29.91,16,7,16,0.00
2013-2-18,49.6,43.6,40.6,39.1,37.1,34.4,89,78,64,30.05,29.91,12,6,12,0.00
2013-2-19,49.8,39.0,28.8,43.3,36.0,28.5,99,90,70,30.04,29.95,8,3,8,0.00
2013-2-20,48.7,40.8,31.8,40.9,36.8,30.8,99,87,70,30.11,29.99,12,5,13,0.00
2013-2-21,42.1,37.5,35.1,34.3,29.9,28.3,82,74,64,30.15,30.07,17,8,17,0.00
2013-2-22,38.1,36.3,34.2,29.7,27.3,25.3,75,70,63,30.23,30.10,9,4,9,0.00
2013-2-23,38.1,35.7,33.8,32.9,30.0,25.5,88,80,67,30.30,30.19,6,2,8,0.00
2013-2-24,43.2,36.6,29.5,37.4,32.8,27.2,97,86,76,30.43,30.28,5,1,5,0.01
2013-2-25,46.9,37.2,28.8,38.9,33.0,27.5,99,85,65,30.54,30.41,5,2,5,0.01
2013-2-26,45.0,40.2,31.8,39.3,37.3,30.6,99,90,76,30.64,30.49,11,3,11,0.00
2013-2-27,47.8,42.4,38.5,40.2,38.4,35.3,93,86,73,30.62,30.53,7,3,7,0.00
2013-2-28,46.2,39.4,33.8,42.4,37.4,33.0,98,92,82,30.57,30.42,5,2,5,0.00
2013-3-1,51.3,42.1,33.4,45.4,38.0,31.6,99,87,66,30.50,30.44,8,2,8,0.00
2013-3-2,49.8,39.5,28.0,42.4,35.8,27.8,99,87,69,30.45,30.28,4,1,4,0.00
2013-3-3,49.3,42.5,39.0,41.7,37.3,34.4,93,83,61,30.26,30.04,9,2,9,0.00
2013-3-4,49.8,42.0,33.3,38.0,35.7,31.2,94,79,63,30.01,29.71,8,2,8,0.00
2013-3-5,51.1,40.1,27.7,43.8,36.5,27.1,99,88,63,29.68,29.51,9,3,9,0.00
2013-3-6,49.3,45.4,42.8,47.6,44.7,41.6,99,97,94,29.51,29.41,7,4,10,0.38
2013-3-7,46.9,46.0,45.1,46.7,45.8,44.9,99,99,99,29.41,29.22,10,5,14,0.33
2013-3-8,52.7,48.5,45.1,51.3,48.0,44.9,99,98,94,29.45,29.22,11,6,11,0.08
2013-3-9,46.9,44.0,40.5,46.7,43.7,40.2,99,99,99,29.67,29.44,14,6,15,0.12
2013-3-10,41.4,38.5,34.3,40.2,30.8,18.4,99,75,51,29.89,29.65,19,11,27,0.00
2013-3-11,37.9,33.3,30.0,28.3,22.1,17.5,88,64,51,30.04,29.89,21,9,21,0.00
2013-3-12,43.2,35.4,28.6,32.0,25.4,20.1,84,67,54,30.05,29.92,11,5,16,0.00
2013-3-13,48.4,37.9,29.8,39.1,33.7,29.6,99,86,62,30.03,29.89,6,2,6,0.01
2013-3-14,50.9,39.4,28.4,42.6,36.3,27.7,99,89,73,30.04,29.75,12,6,12,0.01
2013-3-15,52.2,43.7,34.3,44.1,39.0,32.5,94,84,64,29.68,29.31,15,6,15,0.04
2013-3-16,52.0,38.8,28.9,43.0,33.7,28.7,99,84,51,29.31,29.21,8,2,8,0.01
2013-3-17,46.6,36.6,32.9,45.2,35.8,32.1,99,97,92,29.24,28.77,11,3,11,0.17
2013-3-18,48.2,39.5,34.7,41.6,37.4,34.4,99,93,71,29.40,29.12,11,4,11,0.19
2013-3-19,40.8,37.0,34.0,39.2,36.1,33.0,99,97,89,29.50,29.39,6,2,7,0.22
2013-3-20,47.5,39.2,32.9,44.4,37.1,32.7,99,93,76,29.86,29.48,7,2,7,0.01
2013-3-21,44.1,40.7,38.7,41.3,38.1,36.4,98,91,76,29.83,29.59,18,11,26,0.24
2013-3-22,41.9,40.8,38.7,41.6,40.4,38.4,99,99,96,29.65,29.43,21,14,21,0.30
2013-3-23,41.2,38.7,36.9,40.2,36.9,34.1,99,93,85,29.89,29.63,14,8,16,0.01
2013-3-24,36.9,36.2,35.1,33.9,30.5,27.8,89,80,71,30.02,29.86,17,10,21,0.00
2013-3-25,40.5,37.2,34.9,29.1,27.2,25.6,76,67,59,30.07,30.00,16,10,16,0.00
2013-3-26,41.9,35.8,32.9,33.9,30.9,25.9,93,82,65,30.06,29.96,11,6,16,0.07
2013-3-27,41.2,36.1,32.2,36.2,32.3,27.4,98,86,73,29.99,29.92,10,4,14,0.11
2013-3-28,42.3,36.9,31.8,33.3,30.0,25.7,98,77,61,29.96,29.86,16,5,18,0.09
2013-3-29,42.8,38.9,34.9,29.4,26.5,24.8,69,61,50,29.86,29.79,11,7,11,0.00
2013-3-30,47.5,39.7,34.7,29.6,25.9,23.9,70,58,43,29.93,29.80,11,5,11,0.00
2013-3-31,42.4,39.5,37.0,31.4,29.3,25.6,74,67,59,29.88,29.80,12,7,16,0.00
2013-4-1,41.0,38.5,36.0,30.6,28.7,27.1,75,67,61,29.90,29.76,14,8,14,0.00
2013-4-2,49.8,41.7,32.9,33.8,29.1,26.1,77,62,42,30.09,29.89,11,6,11,0.00
2013-4-3,52.3,41.9,33.1,35.6,29.9,25.9,89,64,43,30.16,30.09,11,6,11,0.00
2013-4-4,51.6,41.0,30.7,34.9,30.4,27.6,92,68,44,30.16,30.11,16,5,16,0.00
2013-4-5,46.2,39.9,33.4,39.3,31.2,28.4,93,72,53,30.22,30.11,11,4,11,0.01
2013-4-6,53.2,40.3,25.3,38.4,30.8,23.3,94,71,46,29.92,29.81,11,3,11,0.00
2013-4-7,50.5,42.4,35.2,37.1,34.0,30.3,89,73,52,30.16,29.82,11,5,11,0.00
2013-4-8,50.7,44.9,38.5,37.4,35.6,32.3,90,71,56,29.75,29.47,21,8,21,0.00
2013-4-9,47.8,41.8,38.1,38.5,36.4,34.9,91,82,68,29.58,29.42,13,6,13,0.00
2013-4-10,51.8,45.1,40.3,47.1,42.6,37.9,98,91,77,29.57,29.44,8,4,10,0.02
2013-4-11,50.9,45.7,43.0,48.2,44.5,41.6,99,96,89,29.42,29.18,8,3,8,0.60
2013-4-12,56.8,48.0,41.7,50.8,43.8,41.5,99,86,62,29.61,29.23,7,3,7,0.01
2013-4-13,56.8,48.7,39.2,54.3,46.2,38.9,99,91,72,29.62,29.32,17,5,17,0.02
2013-4-14,61.3,55.1,50.0,54.1,50.1,47.4,98,84,68,29.51,29.31,28,12,28,0.13
2013-4-15,66.9,57.9,51.1,49.2,45.7,43.5,85,65,49,29.80,29.52,15,8,20,0.01
2013-4-16,61.0,54.6,48.7,47.7,38.9,30.8,87,59,35,29.89,29.43,25,12,25,0.07
2013-4-17,60.3,54.1,47.8,55.4,48.4,38.7,91,81,70,29.84,29.17,22,10,27,0.05
2013-4-18,56.5,49.0,44.2,47.2,44.3,41.6,98,85,59,30.01,29.24,30,13,30,0.24
2013-4-19,62.8,50.1,38.5,47.1,40.8,37.7,99,74,42,30.45,30.09,8,3,8,0.00
2013-4-20,62.8,50.2,36.7,49.9,41.2,35.4,98,73,47,30.43,30.19,15,4,15,0.00
2013-4-21,61.2,52.2,44.6,48.6,43.4,40.1,95,73,51,30.17,29.92,12,7,14,0.09
2013-4-22,63.3,52.5,44.2,54.3,47.4,40.6,98,84,64,29.93,29.76,16,9,18,0.00
2013-4-23,66.7,56.4,46.6,51.9,48.6,44.1,98,77,55,30.11,29.91,11,7,11,0.00
2013-4-24,60.1,54.8,46.8,55.8,51.4,46.5,99,89,76,30.23,29.99,18,7,18,0.08
2013-4-25,59.5,50.0,45.0,50.1,44.6,40.0,99,83,53,30.17,30.06,7,3,7,0.40
2013-4-26,56.7,45.6,36.1,42.9,36.7,31.1,97,72,48,30.12,30.01,11,5,12,0.02
2013-4-27,60.8,49.1,38.3,40.3,37.0,34.0,90,65,38,30.15,30.05,6,1,6,0.00
2013-4-28,59.0,49.2,43.9,50.7,41.6,36.7,94,76,57,30.07,29.82,13,7,13,0.01
2013-4-29,61.0,49.2,39.4,46.0,38.8,32.6,93,70,43,30.19,29.88,15,7,15,0.02
2013-4-30,64.6,50.6,35.2,47.6,37.0,32.4,97,64,32,30.31,30.20,4,3,5,0.00
2013-5-1,64.4,53.1,41.9,52.1,40.9,33.3,89,66,40,30.27,30.20,8,4,8,0.00
2013-5-2,67.5,54.4,40.5,48.0,43.5,38.0,95,69,42,30.25,30.10,12,4,12,0.00
2013-5-3,61.3,54.9,49.6,51.1,47.7,45.3,97,77,60,30.10,29.85,22,11,22,0.06
2013-5-4,63.1,54.5,46.2,48.5,44.8,41.7,97,73,47,29.95,29.79,17,9,17,0.04
2013-5-5,70.7,59.2,52.5,53.5,50.6,47.2,97,75,49,30.08,29.96,15,8,15,0.00
2013-5-6,71.1,59.8,51.1,52.2,49.4,47.2,92,71,47,30.06,29.99,13,6,13,0.00
2013-5-7,69.6,57.8,44.8,51.9,48.0,43.7,98,72,49,29.99,29.75,12,5,12,0.00
2013-5-8,63.9,54.4,48.2,55.3,49.7,41.7,99,85,64,29.63,29.27,17,9,18,0.19
2013-5-9,58.1,50.1,46.2,50.2,45.1,39.9,92,83,67,29.49,29.15,20,10,20,0.09
2013-5-10,64.2,52.6,44.8,53.4,44.6,35.0,99,77,38,29.71,29.55,17,9,17,0.05
2013-5-11,58.1,49.4,44.1,50.7,43.3,38.8,99,81,54,29.93,29.65,21,8,21,0.11
2013-5-12,61.0,51.5,42.1,53.8,47.1,39.3,97,85,69,29.94,29.75,17,9,22,0.07
2013-5-13,56.8,49.1,42.8,43.8,40.2,37.8,90,72,53,29.82,29.69,17,10,17,0.05
2013-5-14,64.0,51.1,39.9,43.4,39.7,36.8,93,68,39,29.68,29.33,12,7,12,0.00
2013-5-15,58.3,48.6,41.4,48.1,41.2,38.5,94,76,56,29.51,29.39,12,5,12,0.02
2013-5-16,58.1,48.0,38.3,48.1,41.4,35.1,92,78,57,29.58,29.42,6,3,6,0.04
2013-5-17,68.0,50.7,34.2,49.0,41.0,33.4,99,73,35,29.91,29.59,9,3,9,0.01
2013-5-18,60.3,50.9,45.5,50.8,46.2,38.7,98,84,66,29.88,29.72,10,4,10,0.02
2013-5-19,72.7,59.4,49.1,53.2,49.0,45.7,99,72,39,30.02,29.76,8,2,8,0.01
2013-5-20,62.8,57.0,53.8,56.2,52.4,49.2,90,85,75,30.11,29.98,10,3,11,0.00
2013-5-21,70.0,57.9,48.4,51.4,48.4,45.9,92,73,48,30.17,30.09,10,4,10,0.00
2013-5-22,63.0,54.7,48.9,49.6,42.9,37.6,95,67,43,30.22,30.15,14,4,14,0.00
2013-5-23,56.8,48.6,40.3,44.1,38.4,35.1,92,69,47,30.16,30.05,16,6,16,0.00
2013-5-24,65.1,52.7,43.3,41.8,38.3,35.3,85,60,35,30.20,30.00,11,5,11,0.02
2013-5-25,73.6,57.8,39.2,51.6,42.3,35.9,91,60,34,30.19,30.12,8,3,9,0.01
2013-5-26,71.6,60.8,50.5,61.4,49.2,43.8,98,69,38,30.15,29.83,11,5,13,0.12
2013-5-27,67.3,55.3,49.8,53.0,48.1,42.7,99,79,47,29.73,29.40,11,6,13,0.46
2013-5-28,67.6,55.5,43.3,53.7,45.1,41.5,95,70,49,29.65,29.46,8,4,8,0.00
2013-5-29,76.5,60.8,49.1,51.8,49.3,45.8,99,69,39,29.97,29.64,10,5,10,0.40
2013-5-30,76.3,63.6,49.8,51.5,47.9,45.5,86,59,35,30.13,29.96,10,4,10,0.21
2013-5-31,67.3,56.9,47.5,56.0,48.2,39.7,93,74,51,30.26,30.12,8,3,8,0.00
2013-6-1,65.3,54.8,44.1,54.8,46.7,39.2,89,75,56,30.41,30.25,11,3,11,0.02
2013-6-2,71.6,60.0,49.1,54.7,49.5,45.7,93,70,48,30.45,30.36,8,3,8,0.00
2013-6-3,76.6,66.2,55.2,57.9,54.2,52.1,94,68,44,30.48,30.44,4,2,4,0.00
2013-6-5,74.7,63.8,46.6,57.8,49.0,44.1,94,62,36,30.23,30.12,10,4,10,0.00
2013-6-6,73.0,64.4,51.3,58.3,50.9,48.2,95,65,44,30.25,30.11,10,4,10,0.00
2013-6-7,79.3,68.2,50.7,58.9,50.6,47.2,97,58,35,30.28,30.23,8,4,8,0.00
2013-6-8,80.2,67.3,52.5,57.7,50.0,46.5,84,57,31,30.27,30.11,10,2,10,0.04
2013-6-9,81.0,66.0,49.1,57.4,46.7,39.7,91,55,27,30.11,29.92,11,4,11,0.00
2013-6-10,75.9,62.4,50.4,57.2,48.0,43.2,90,62,38,29.93,29.79,13,5,13,0.01
2013-6-11,75.7,59.1,51.8,62.0,55.6,50.8,99,89,61,29.79,29.61,10,5,11,0.48
2013-6-12,72.7,59.5,53.6,63.6,54.4,50.9,99,85,48,29.68,29.55,8,2,8,0.20
2013-6-13,70.2,58.6,50.2,56.6,51.2,44.5,99,79,43,29.88,29.51,11,5,12,0.12
2013-6-14,69.3,56.0,49.5,57.1,50.5,45.1,95,83,59,29.86,29.38,17,6,21,0.07
2013-6-15,70.5,57.6,45.7,53.6,48.9,43.8,95,75,40,29.69,29.48,17,10,19,0.02
2013-6-16,74.7,58.9,51.4,54.6,51.6,47.9,98,80,44,29.92,29.70,11,5,11,0.07
2013-6-17,70.3,58.0,52.2,58.6,53.9,51.9,99,88,55,30.02,29.90,7,3,7,0.08
2013-6-18,83.8,65.3,46.9,61.4,53.5,46.3,99,70,37,29.98,29.92,4,2,8,0.00
2013-6-19,81.5,67.0,53.6,55.8,49.8,46.9,87,58,30,30.04,29.99,9,3,9,0.01
2013-6-20,79.3,64.9,53.2,55.2,50.7,48.1,88,63,35,30.01,29.77,8,2,8,0.00
2013-6-21,77.4,64.5,57.2,58.3,54.3,48.6,95,73,39,29.83,29.65,9,4,9,0.01
2013-6-23,62.6,56.5,52.0,53.6,50.6,44.8,96,81,61,30.11,29.57,16,6,16,0.01
2013-6-24,71.4,59.7,47.8,53.0,47.9,44.9,96,68,43,30.25,30.11,10,4,10,0.00
2013-6-25,75.7,62.6,48.6,55.8,51.8,46.3,94,70,47,30.40,30.25,6,3,6,0.00
2013-6-26,76.8,65.1,53.2,54.5,50.5,47.1,90,62,37,30.48,30.41,7,2,7,0.00
2013-6-27,66.6,59.2,51.8,63.6,56.4,48.1,98,90,77,30.45,30.22,16,4,16,0.07
2013-6-28,68.5,61.7,55.4,61.4,58.1,50.6,99,88,73,30.22,30.06,15,7,15,0.00
2013-6-29,79.5,62.6,52.7,64.3,56.1,48.5,94,81,51,30.22,30.16,12,6,13,0.00
2013-6-30,69.4,61.8,55.2,59.5,53.4,46.2,87,74,52,30.20,29.97,17,10,17,0.02
2013-7-1,75.9,61.3,51.3,52.5,48.5,45.8,91,66,36,29.99,29.91,14,5,14,0.00
2013-7-2,69.3,59.5,54.9,62.8,54.6,48.6,95,84,73,29.88,29.43,13,6,13,0.14
2013-7-3,73.9,62.7,53.6,60.7,56.5,53.3,99,82,54,29.84,29.50,11,6,11,0.01
2013-7-4,70.9,64.8,58.6,61.5,55.3,48.5,94,73,52,30.22,29.78,14,9,14,0.04
2013-7-5,82.4,65.4,51.4,59.5,52.9,48.4,91,67,43,30.36,30.23,8,5,8,0.05
2013-7-6,93.2,72.3,55.0,62.2,55.8,49.3,87,59,28,30.45,30.31,10,4,10,0.11
2013-7-7,83.1,71.0,62.6,64.2,61.9,56.5,94,74,49,30.60,30.45,7,2,7,0.00
2013-7-8,87.4,72.9,60.1,62.3,58.8,56.1,92,65,37,30.58,30.50,5,2,5,0.01
2013-7-9,92.5,76.8,59.0,67.0,59.2,56.6,96,59,33,30.49,30.36,7,2,7,0.00
2013-7-10,82.8,72.9,57.7,67.4,60.4,56.0,96,67,46,30.38,30.32,6,2,8,0.00
2013-7-11,81.9,73.2,59.5,66.0,60.3,58.1,96,66,46,30.33,30.28,9,3,9,0.00
2013-7-12,93.0,76.0,55.9,63.7,56.9,53.0,93,58,27,30.29,30.25,5,1,5,0.00
2013-7-13,87.6,73.4,61.9,68.5,61.8,57.3,95,69,45,30.35,30.27,9,3,9,0.00
2013-7-14,91.6,75.2,59.2,65.6,57.2,47.6,90,59,26,30.32,30.23,8,3,8,0.00
2013-7-15,75.7,66.4,57.6,60.0,56.0,53.4,93,70,47,30.28,30.25,8,4,8,0.01
2013-7-16,81.3,70.1,57.9,59.4,57.2,54.5,94,66,43,30.28,30.23,6,2,6,0.01
2013-7-17,86.9,74.0,63.7,62.1,57.5,53.5,83,59,35,30.36,30.26,5,2,7,0.00
2013-7-18,86.4,74.4,57.0,62.9,56.7,54.0,91,58,35,30.38,30.34,8,2,8,0.09
2013-7-19,88.9,76.0,62.8,67.5,62.9,59.1,98,67,37,30.36,30.28,7,3,7,0.04
2013-7-20,82.9,72.9,63.0,68.1,62.4,60.2,97,72,48,30.28,30.19,12,3,12,0.00
2013-7-21,79.3,68.6,61.5,61.4,59.4,56.4,95,74,46,30.19,30.04,7,3,7,0.00
2013-7-22,82.4,71.0,62.4,66.2,62.8,58.8,93,77,54,30.01,29.91,8,3,8,0.05
2013-7-23,81.0,70.6,62.6,64.9,61.5,58.4,92,75,47,29.91,29.82,10,4,10,0.00
2013-7-24,77.2,69.8,62.6,61.8,59.1,54.6,89,70,47,29.84,29.78,10,4,10,0.00
2013-7-25,81.9,65.6,60.3,70.7,62.8,60.0,99,91,69,29.83,29.75,4,2,4,0.50
2013-7-26,81.0,66.9,55.8,68.6,60.0,55.2,99,80,51,29.85,29.81,8,2,8,0.22
2013-7-27,79.2,64.1,53.4,67.7,58.8,53.1,99,85,51,29.83,29.62,6,2,6,0.15
2013-7-28,82.2,68.0,51.8,68.6,59.1,51.5,99,76,44,29.61,29.54,7,2,7,0.13
2013-7-29,78.1,65.6,59.7,64.4,59.5,55.7,98,82,55,29.82,29.57,14,5,14,0.07
2013-7-30,77.5,65.6,52.7,62.2,54.5,50.7,95,70,44,29.89,29.77,11,5,11,0.05
2013-7-31,70.7,62.3,57.2,67.5,59.3,53.8,99,90,75,29.88,29.65,10,4,11,0.22
2013-8-1,78.8,69.4,65.8,66.6,64.7,62.5,97,86,63,29.69,29.55,9,4,9,0.13
2013-8-2,77.2,66.9,60.3,63.6,58.3,55.9,92,75,49,29.65,29.49,17,7,17,0.15
2013-8-3,74.5,62.4,55.4,58.1,55.3,52.7,95,79,48,29.93,29.64,16,8,16,0.14
2013-8-4,75.7,64.3,53.4,64.8,58.4,53.1,99,83,55,29.90,29.83,5,3,5,0.00
2013-8-5,73.4,63.7,58.5,60.0,55.1,48.1,99,76,47,29.96,29.77,10,3,10,0.04
2013-8-6,73.4,63.8,56.3,59.0,54.8,51.3,93,74,50,29.97,29.89,10,4,10,0.00
2013-8-7,83.8,66.1,53.4,63.3,53.6,50.0,94,67,37,30.09,29.90,7,2,7,0.00
2013-8-8,78.1,67.1,58.5,60.5,56.0,51.9,87,69,42,30.04,29.92,11,4,11,0.00
2013-8-9,69.1,62.5,57.4,58.0,54.4,51.4,97,76,55,30.22,29.94,12,5,12,0.00
2013-8-10,76.8,64.3,56.5,57.3,54.3,51.6,88,71,47,30.21,30.06,9,5,11,0.00
2013-8-11,72.1,62.2,53.6,55.9,52.7,48.0,96,73,45,30.07,29.99,17,7,17,0.00
2013-8-12,71.1,61.5,51.8,56.2,50.9,45.2,91,70,50,30.16,29.99,10,5,11,0.02
2013-8-13,74.7,63.2,54.7,61.5,56.4,48.1,99,80,61,30.19,30.10,10,5,10,0.04
2013-8-14,78.4,69.0,58.5,66.6,61.1,55.2,95,77,59,30.14,29.99,8,3,8,0.01
2013-8-15,74.3,66.7,62.2,67.7,64.4,61.7,99,93,71,29.97,29.77,16,7,16,0.60
2013-8-16,74.1,63.4,53.2,62.9,57.2,53.0,99,81,62,29.92,29.84,11,4,11,0.05
2013-8-17,75.7,64.9,58.3,66.5,59.4,55.1,90,83,66,29.87,29.48,17,8,17,0.00
2013-8-18,70.2,61.3,54.1,56.3,53.1,50.4,97,76,51,29.89,29.62,12,6,12,0.00
2013-8-19,73.4,62.5,52.0,59.1,53.5,50.3,95,74,50,30.24,29.91,15,6,15,0.00
2013-8-20,74.5,65.5,58.5,58.8,56.5,54.9,92,74,52,30.27,30.17,11,5,11,0.00
2013-8-21,76.5,68.2,61.9,61.7,60.0,57.7,93,76,56,30.13,30.05,15,8,15,0.00
2013-8-22,73.8,64.9,58.3,61.7,59.1,56.9,97,82,65,30.11,29.96,6,3,6,0.00
2013-8-23,67.1,61.1,57.0,63.8,59.5,56.2,99,94,84,29.96,29.85,8,2,8,0.17
2013-8-24,68.5,59.2,48.6,58.0,53.9,48.3,99,85,55,30.00,29.92,4,2,4,0.01
2013-8-25,71.8,63.7,57.4,61.8,58.4,56.7,99,84,64,30.18,29.94,6,2,6,0.02
2013-8-26,73.6,62.4,52.9,62.9,56.5,52.6,99,83,61,30.17,30.12,4,2,4,0.00
2013-8-27,75.4,63.5,56.8,67.0,60.0,54.8,99,89,68,30.24,30.09,5,2,5,0.01
2013-8-28,72.1,63.3,53.6,58.1,54.1,51.0,95,74,53,30.24,30.14,8,2,11,0.00
2013-8-29,76.3,66.5,58.6,63.3,59.4,55.7,95,79,57,30.15,30.07,13,6,13,0.01
2013-8-30,72.9,63.5,54.0,63.7,57.2,48.9,94,81,63,30.25,29.98,17,6,17,0.00
2013-8-31,68.7,57.9,47.5,50.2,48.0,44.1,89,71,49,30.47,30.25,11,4,11,0.00
2013-9-1,69.8,59.0,51.3,54.1,51.0,48.1,90,76,54,30.45,30.32,15,8,20,0.00
2013-9-2,75.0,64.6,57.9,63.7,59.3,51.8,95,84,68,30.38,30.27,17,8,17,0.00
2013-9-3,79.3,66.5,57.7,65.4,57.1,50.8,99,75,43,30.33,30.19,11,3,11,0.00
2013-9-4,80.2,64.4,52.3,61.7,53.0,47.7,97,71,38,30.20,29.93,11,4,11,0.00
2013-9-5,71.4,60.6,53.8,56.4,48.9,42.5,90,68,42,29.97,29.90,7,3,7,0.00
2013-9-6,65.3,52.9,41.7,53.5,45.4,40.9,99,78,44,29.91,29.83,8,3,8,0.01
2013-9-7,55.8,50.4,47.7,49.7,48.3,46.9,99,93,75,29.88,29.80,12,6,17,0.22
2013-9-8,63.3,54.4,48.0,55.6,49.9,47.2,99,86,62,29.96,29.84,10,5,10,0.09
2013-9-9,66.2,54.3,42.3,53.7,48.9,42.0,99,84,55,30.25,29.94,9,3,9,0.00
2013-9-10,68.9,56.8,47.7,53.9,50.7,47.4,99,82,57,30.35,30.24,9,3,9,0.00
2013-9-11,63.9,58.5,53.6,63.4,57.6,52.2,99,97,90,30.33,30.15,11,4,11,0.01
2013-9-12,67.3,62.4,58.6,66.2,61.9,57.8,99,98,94,30.13,29.98,11,5,11,0.09
2013-9-13,62.6,55.1,50.5,57.7,50.4,47.2,99,85,61,30.15,30.08,3,2,3,0.01
2013-9-14,65.7,54.2,44.6,55.1,45.7,41.9,99,76,43,30.14,30.03,5,2,5,0.00
2013-9-15,63.5,56.6,48.2,62.3,50.9,41.3,99,82,56,30.01,29.49,18,10,18,0.09
2013-9-16,58.3,50.4,45.5,47.7,43.7,42.3,91,79,58,29.64,29.53,17,9,17,0.02
2013-9-17,55.6,51.6,48.6,54.2,49.1,43.7,99,91,80,29.62,29.36,11,4,11,0.47
2013-9-18,60.3,53.0,47.7,51.9,48.0,44.4,99,84,62,29.86,29.48,10,4,10,0.04
2013-9-19,65.3,57.1,49.3,58.7,50.7,45.3,99,80,64,29.90,29.55,14,8,14,0.11
2013-9-20,64.8,56.8,49.5,52.9,48.8,45.4,87,76,58,30.07,29.90,11,4,11,0.00
2013-9-21,75.6,65.6,56.5,65.1,59.6,52.7,95,82,67,30.22,30.00,14,6,14,0.00
2013-9-22,76.5,65.7,58.8,62.5,59.4,57.6,96,82,59,30.31,30.22,8,4,8,0.00
2013-9-23,78.3,64.2,52.7,70.5,59.5,52.4,99,86,65,30.27,30.10,4,1,5,0.00
2013-9-24,72.9,62.3,58.1,63.3,59.5,57.8,99,91,71,30.06,29.92,6,3,6,0.05
2013-9-25,66.2,60.2,57.4,63.4,59.1,57.1,99,96,86,29.91,29.84,4,2,4,0.01
2013-9-26,63.0,59.5,57.6,62.4,58.7,57.3,99,97,92,29.98,29.88,7,3,7,0.05
2013-9-27,69.6,61.4,56.1,67.3,58.2,55.3,99,90,71,29.96,29.83,8,2,8,0.00
2013-9-28,66.4,59.5,54.0,58.6,56.5,53.7,99,90,74,29.82,29.71,10,2,10,0.00
2013-9-29,65.1,60.3,57.6,57.8,55.4,53.2,97,84,71,29.73,29.68,10,5,10,0.01
2013-9-30,62.1,58.6,55.6,59.8,56.8,53.9,99,94,84,29.68,29.63,11,5,11,0.13
2013-10-1,60.8,59.1,56.3,60.5,58.6,56.0,99,98,94,29.65,29.60,15,7,15,0.39
2013-10-2,71.4,62.7,59.2,65.9,61.5,58.9,99,96,76,29.61,29.57,8,4,8,0.37
2013-10-3,64.6,62.0,59.5,64.0,61.5,59.3,99,98,95,29.61,29.52,7,2,7,0.60
2013-10-4,65.3,59.9,56.8,60.4,58.7,56.6,99,96,81,29.76,29.54,9,3,10,0.01
2013-10-5,68.4,58.9,51.4,58.8,54.8,51.2,99,87,66,30.17,29.95,12,4,12,0.01
2013-10-6,70.7,63.5,56.7,64.2,59.3,50.4,99,86,78,30.15,30.10,11,6,11,0.02
2013-10-7,69.1,64.6,61.7,62.9,60.7,58.8,99,88,75,30.12,30.06,12,6,12,0.00
2013-10-8,66.4,60.5,56.5,60.9,56.5,53.6,99,87,66,30.30,30.09,11,5,11,0.00
2013-10-9,57.0,51.2,43.5,52.2,45.5,38.1,95,82,58,30.28,30.16,12,5,12,0.00
2013-10-10,56.3,46.5,37.8,44.3,39.6,35.9,98,79,53,30.38,30.24,8,2,8,0.00
2013-10-11,59.5,50.2,40.3,51.6,45.9,38.4,94,86,75,30.38,30.33,10,4,10,0.00
2013-10-12,55.8,53.1,50.5,53.1,49.7,47.3,95,88,79,30.33,30.17,8,4,8,0.00
2013-10-13,55.0,52.2,48.4,52.8,49.5,44.8,99,91,75,30.14,29.94,7,2,7,0.00
2013-10-14,56.5,50.3,44.4,51.6,47.4,42.5,99,90,72,29.94,29.86,5,2,5,0.05
2013-10-15,61.5,50.0,39.6,53.9,47.2,39.3,99,91,71,29.90,29.81,8,2,8,0.00
2013-10-16,57.2,53.4,50.9,56.0,52.1,50.2,99,95,87,29.80,29.51,13,6,13,0.54
2013-10-17,64.2,55.2,49.6,57.4,52.8,49.4,99,92,75,29.88,29.70,10,4,10,0.00
2013-10-18,57.9,55.8,52.5,57.6,55.4,52.2,99,99,96,29.85,29.54,14,5,14,0.30
2013-10-19,62.1,56.9,53.2,59.2,55.7,52.1,99,96,87,29.44,29.38,6,2,6,0.07
2013-10-20,63.0,55.5,50.4,56.1,52.9,50.1,99,92,73,29.51,29.25,14,5,14,0.02
2013-10-21,62.8,56.0,48.0,62.1,55.4,47.8,99,98,92,29.51,29.18,11,4,11,0.28
2013-10-22,64.8,59.1,55.8,59.6,56.7,55.0,99,92,80,29.18,29.00,9,3,9,0.06
2013-10-23,55.9,51.7,45.9,55.7,47.8,42.8,99,87,66,29.70,29.00,13,8,13,0.00
2013-10-24,63.0,52.2,42.4,57.0,50.3,40.6,99,93,78,29.79,29.67,8,3,11,0.00
2013-10-25,63.1,57.8,55.4,58.2,56.4,55.0,99,95,82,29.56,29.32,12,6,17,0.18
2013-10-26,58.6,52.8,50.2,54.7,50.8,48.0,99,93,76,29.48,29.22,14,6,14,0.20
2013-10-27,57.9,52.7,49.5,51.8,49.2,46.1,97,88,77,29.14,28.99,23,11,23,0.06
2013-10-28,55.4,49.9,47.3,48.5,46.5,43.7,99,89,69,29.51,28.96,14,9,17,0.01
2013-10-29,55.4,46.0,40.8,46.5,42.9,39.8,98,89,69,30.01,29.57,11,6,11,0.02
2013-10-30,59.7,50.2,41.9,56.6,47.8,41.1,98,92,79,30.01,29.69,17,5,17,0.01
2013-10-31,57.6,50.2,46.8,49.7,46.9,44.7,95,89,75,29.93,29.74,17,9,17,0.04
2013-11-1,53.8,46.6,39.7,47.8,43.4,38.6,97,89,70,29.74,29.61,9,4,9,0.00
2013-11-2,52.5,44.9,34.0,48.1,42.3,33.7,99,91,79,29.54,28.94,21,9,21,0.12
2013-11-3,51.3,44.5,37.9,44.4,41.1,36.4,97,88,72,29.47,29.24,12,5,12,0.00
2013-11-4,50.0,40.7,32.4,45.9,38.3,32.1,99,91,78,29.42,29.24,8,3,8,0.00
2013-11-5,52.7,47.7,45.5,47.4,45.1,41.9,99,91,78,29.40,29.15,14,7,14,0.13
2013-11-6,51.8,46.9,42.6,49.8,46.1,42.4,99,97,92,29.52,29.34,11,5,11,0.05
2013-11-7,52.2,45.6,40.1,44.3,42.0,39.8,99,88,72,29.60,29.51,18,9,18,0.01
2013-11-8,50.9,44.6,40.6,44.4,41.0,38.2,94,87,74,29.62,29.52,14,5,14,0.00
2013-11-9,48.4,42.1,36.9,43.2,40.1,36.0,99,93,82,29.67,29.52,12,6,12,0.02
2013-11-10,52.0,42.9,34.7,51.7,41.6,34.4,99,95,79,29.67,29.33,8,2,8,0.14
2013-11-11,58.8,55.1,50.5,58.3,53.9,49.2,99,96,86,29.78,29.43,14,7,14,0.01
2013-11-12,51.6,45.5,40.5,47.8,43.2,39.1,99,92,75,30.52,30.15,11,5,11,0.01
2013-11-13,51.4,46.5,40.6,48.8,43.3,39.5,98,89,74,30.51,30.06,16,8,18,0.02
2013-11-14,49.6,45.7,42.4,44.0,42.0,40.6,95,87,76,30.58,30.14,14,6,14,0.02
2013-11-15,52.7,48.7,44.6,48.2,45.4,42.1,92,88,83,30.55,30.46,8,4,8,0.00
2013-11-16,53.2,51.1,49.8,50.8,48.2,46.1,99,90,85,30.46,30.36,14,6,14,0.00
2013-11-17,56.3,52.6,50.2,56.0,51.8,49.9,99,97,94,30.35,29.95,11,4,11,0.05
2013-11-18,51.3,43.0,36.0,51.0,42.0,35.5,99,96,86,29.94,29.86,9,4,9,0.13
2013-11-19,42.1,37.4,32.5,37.6,35.4,32.3,99,93,82,30.14,29.91,14,6,17,0.01
2013-11-20,46.9,43.8,40.6,44.4,39.7,34.8,98,86,70,29.91,29.65,17,9,17,0.01
2013-11-21,42.1,38.9,34.2,34.3,32.9,30.1,88,79,70,30.13,29.84,11,4,11,0.00
2013-11-22,43.9,35.2,30.4,38.4,32.8,29.4,99,91,80,30.29,30.12,4,1,4,0.00
2013-11-23,65.7,57.9,50.9,57.7,48.0,41.9,98,72,43,29.54,28.95,18,5,18,0.01
2013-11-24,63.5,51.7,43.3,62.3,46.9,41.3,99,85,56,30.07,28.89,15,5,15,5.07
2013-11-25,50.7,44.0,41.9,44.0,41.4,40.5,99,91,75,30.17,30.05,4,1,4,0.00
2013-11-26,49.5,44.8,41.0,46.4,43.0,39.7,99,93,87,30.15,30.05,9,4,9,0.00
2013-11-27,50.2,46.9,41.9,48.1,45.7,41.6,99,96,90,30.05,29.98,8,3,8,0.00
2013-11-28,52.7,48.8,47.1,52.4,48.5,46.8,99,99,96,30.00,29.92,8,2,8,0.01
2013-11-29,48.6,46.3,41.9,47.6,44.3,41.1,99,93,84,29.91,29.76,14,6,14,0.01
2013-11-30,47.5,43.0,37.2,46.6,42.5,37.0,99,98,94,29.91,29.78,8,3,8,0.00
2013-12-1,51.6,47.3,44.6,51.3,46.7,44.3,99,98,93,29.97,29.89,4,1,4,0.01
2013-12-2,48.9,46.3,43.0,48.1,44.9,40.8,99,95,88,29.93,29.79,4,1,4,0.00
2013-12-3,50.5,46.9,42.6,48.0,45.1,41.0,99,93,86,29.78,29.63,11,5,11,0.00
2013-12-4,44.6,40.0,35.2,43.4,38.8,35.0,99,96,86,29.88,29.70,13,5,15,0.01
2013-12-5,50.9,44.7,38.3,48.1,40.7,37.0,95,86,74,29.76,29.41,21,9,21,0.15
2013-12-6,50.2,44.0,36.5,48.9,43.4,35.9,99,98,91,29.76,29.71,9,5,11,0.00
2013-12-7,49.6,46.4,43.9,47.1,45.2,43.6,99,96,89,29.70,29.53,12,8,12,0.00
2013-12-8,53.1,50.6,45.1,49.6,48.4,44.5,98,92,88,29.53,29.44,17,11,20,0.00
2013-12-9,53.6,50.1,46.2,49.3,47.1,43.4,99,90,79,29.60,29.51,14,6,14,0.00
2013-12-10,56.5,53.8,51.6,52.6,50.1,45.9,95,87,75,29.60,29.51,13,6,13,0.00
2013-12-11,56.1,52.8,50.7,52.6,46.6,40.2,95,80,55,29.21,29.00,11,5,11,0.00
2013-12-12,60.6,57.0,54.3,57.4,54.9,49.8,97,93,84,28.99,28.90,16,7,16,0.00
2013-12-13,56.7,50.6,40.1,55.1,46.5,37.0,96,86,71,29.42,29.08,17,8,17,0.02
2013-12-14,54.3,49.5,39.9,52.9,47.1,36.9,99,92,79,29.41,28.91,24,11,24,0.25
2013-12-15,54.7,48.9,41.7,51.1,45.6,37.4,99,88,80,29.30,28.96,18,8,20,0.06
2013-12-16,49.3,43.4,40.1,47.7,40.8,37.1,99,91,81,29.46,28.97,16,8,16,0.28
2013-12-17,48.7,43.2,37.0,43.8,38.3,34.6,92,83,74,29.48,29.05,19,6,19,0.00
2013-12-18,56.5,49.0,41.2,52.8,45.7,36.6,97,89,79,29.02,28.19,17,10,27,0.40
2013-12-19,40.3,37.4,35.4,37.4,35.8,34.1,99,94,87,29.06,28.51,17,11,17,0.04
2013-12-20,52.7,46.1,36.7,51.9,43.8,35.9,99,92,84,29.23,28.90,22,11,22,0.24
2013-12-21,49.3,44.8,39.9,46.2,41.9,37.7,99,90,79,29.00,28.75,20,9,20,0.35
2013-12-22,41.5,38.3,35.1,39.0,36.4,34.4,98,93,86,29.06,28.82,15,10,15,0.07
2013-12-23,53.4,47.7,37.8,51.8,44.8,35.4,98,90,82,28.98,27.76,19,10,23,0.14
2013-12-24,43.5,39.8,37.2,39.5,34.6,29.7,98,82,64,28.08,27.78,21,12,21,0.46
2013-12-25,46.4,36.1,30.9,39.9,33.8,30.1,98,92,76,28.50,28.09,12,2,12,0.00
2013-12-26,50.7,41.8,34.7,49.9,39.9,34.4,99,93,81,28.75,27.84,22,9,28,0.22
2013-12-27,47.7,43.3,38.5,43.6,40.4,38.2,99,90,77,28.42,27.70,27,16,27,1.29
2013-12-28,43.7,38.6,36.1,40.4,37.6,35.9,99,96,88,29.04,28.43,14,8,14,0.00
2013-12-29,52.3,42.5,35.6,51.2,40.3,34.5,97,92,81,29.25,28.86,18,7,18,0.04
2013-12-30,52.0,44.6,41.0,51.4,43.5,39.2,99,96,89,29.02,28.62,16,6,16,0.53
2013-12-31,48.7,43.6,40.3,45.2,40.7,37.6,98,89,77,28.78,28.51,18,6,18,0.14
2014-1-1,51.4,43.6,39.7,50.3,42.8,38.2,99,97,91,28.62,27.98,18,7,18,0.05
2014-1-2,50.2,45.1,41.2,48.1,42.3,39.3,99,90,82,28.53,28.20,17,8,22,0.02